Location: Ceske Budejovice
(48.9830°N, 14.4670°E)
Time: 15:05:56
(UTC+02:00)

VELOX 1 - Visible Passes

Search period start: 23 July 2019 00:00
Search period end: 02 August 2019 00:00
Orbit: 628 x 645 km, 98.2° (Epoch: 23 July)

Date Brightness Start Highest point End Pass type
(mag) Time Alt. Az. Time Alt. Az. Time Alt. Az.
23 Jul ? 00:46:27 10° E 00:49:12 16° ENE 00:51:56 10° NNE visible
23 Jul ? 02:23:41 41° S 02:25:06 70° WSW 02:29:31 10° NNW visible
24 Jul ? 01:08:52 15° ESE 01:11:21 25° ENE 01:14:54 10° N visible
24 Jul ? 02:46:22 34° SW 02:47:33 42° W 02:51:45 10° NNW visible
25 Jul ? 01:31:33 24° ESE 01:33:34 38° ENE 01:37:38 10° N visible
25 Jul ? 03:09:04 24° WSW 03:10:04 26° W 03:13:48 10° NW visible
26 Jul ? 01:54:15 36° SE 01:55:50 61° ENE 02:00:11 10° N visible
26 Jul ? 03:31:46 16° WSW 03:32:39 17° W 03:35:29 10° NW visible
27 Jul ? 00:40:03 10° E 00:42:23 14° ENE 00:44:43 10° NNE visible
27 Jul ? 02:16:57 47° S 02:18:12 83° WSW 02:22:37 10° NNW visible
28 Jul ? 01:02:08 14° E 01:04:31 21° ENE 01:07:50 10° NNE visible
28 Jul ? 02:39:39 42° SW 02:40:37 50° W 02:44:55 10° NNW visible
29 Jul ? 01:24:50 23° ESE 01:26:42 32° ENE 01:30:37 10° N visible
29 Jul ? 03:02:21 29° WSW 03:03:07 31° W 03:07:01 10° NNW visible
30 Jul ? 01:47:33 36° ESE 01:48:58 51° ENE 01:53:14 10° N visible
30 Jul ? 03:25:03 19° WSW 03:25:40 19° W 03:28:51 10° NW visible
31 Jul ? 00:33:46 10° E 00:35:35 12° NE 00:37:23 10° NNE visible
31 Jul ? 02:10:14 52° SSE 02:11:17 84° ENE 02:15:42 10° NNW visible
31 Jul ? 03:47:45 12° W 03:48:18 12° W 03:49:58 10° WNW visible
01 Aug ? 00:55:26 13° E 00:57:41 19° ENE 01:00:43 10° NNE visible
01 Aug ? 02:32:57 51° SW 02:33:41 59° WSW 02:38:02 10° NNW visible
